アトラス彗星

C/2020 R4 ( ATLAS )

English version
Home page
Updated on January 8, 2021

---------------------------------------------------------------------

・ プロフィール

発見日 2020年9月12日
発見光度 19.7等
発見者 Asteroid Terrestrial-Impact Last Alert System (ATLAS) search program

・ 写真集

・ 軌道要素

Epoch 2021 Mar. 7.0 TT = JDT 2459280.5
T 2021 Mar. 1.93613 TT                                  Rudenko
q   1.0286029            (2000.0)            P               Q
z  +0.0102845      Peri.   46.71141     +0.13018567     -0.97846545
 +/-0.0000338      Node   323.27348     -0.96946863     -0.15948156
e   0.9894213      Incl.  164.46314     -0.20780344     +0.13103818
From 270 observations 2020 Aug. 29-Nov. 16, mean residual 0".6.

・ 星図

・ 光度変化

        m1 = 13.0 + 5 logΔ + 10.0 log r  [   ,-85]  (              〜2020年12月 6日)
        m1 =  9.5 + 5 logΔ + 10.0 log r  [-85,   ]  (2020年12月 6日〜              )

---------------------------------------------------------------------

軌道要素はM.P.E.C. 2020-W26に掲載されたものです。
星図はステラナビゲータ Ver.10 (アストロアーツ) で作成したものです。
光度グラフはComet for Windowsで作成したものです。

---------------------------------------------------------------------

Copyright(C) Seiichi Yoshida (comet@aerith.net). All rights reserved.